Theta_e
330 339 341 350 351 353 352 352 352 352 354 354 354 354 352 351 353 353 351 352 351 350 350 350 350 350 350 349 349 350 349 349 349 348 348 348 348 348 348 348 348 348 348 348 348 349 349 349 348 347 346 345 347 352 352 354 354 353 353 352 351 349 348 348 349 350 354 355 354 355 354 354 353 353 353 353 352 354 352 351 350 349 348 350 353
332 337 338 342 351 352 351 351 351 352 352 353 354 354 353 352 352 352 353 352 351 350 350 350 349 350 350 350 349 349 349 349 348 348 347 347 347 347 347 347 347 347 347 347 345 346 346 347 347 347 346 345 346 352 353 353 353 352 352 352 351 349 348 349 349 351 353 352 352 354 353 353 352 352 351 353 352 353 351 350 350 347 347 351 352
332 336 339 341 349 351 353 352 351 351 352 352 353 354 353 353 353 352 353 352 352 351 350 350 349 350 350 350 350 349 348 348 347 347 347 346 346 346 346 346 346 346 346 347 347 346 345 345 346 347 346 346 347 352 353 353 353 353 352 351 350 350 350 349 350 353 352 351 351 351 349 351 352 351 349 352 353 353 351 350 349 348 349 352 351
330 332 340 341 345 348 352 353 354 354 354 355 355 355 355 353 353 353 352 352 352 350 351 350 350 350 350 350 349 349 349 348 347 347 347 347 346 347 348 346 345 346 346 348 348 347 346 345 345 346 346 349 354 353 353 353 353 352 352 351 350 349 348 349 353 352 351 350 349 347 346 347 349 352 352 352 353 353 349 349 349 350 352 352 352
323 331 339 339 340 344 350 352 353 353 355 354 354 355 353 355 354 354 353 352 352 351 350 349 349 349 349 349 349 349 349 348 348 347 347 347 347 348 349 348 346 346 347 348 347 346 346 346 346 346 345 348 354 354 353 353 352 352 351 351 350 349 348 349 352 351 349 348 347 345 346 347 347 351 351 351 353 352 349 350 351 352 351 351 351
319 328 337 339 338 339 347 351 352 353 353 353 353 353 352 354 354 353 353 352 352 352 352 351 350 350 349 349 348 349 349 348 348 347 347 347 347 347 349 349 347 347 348 348 348 347 346 346 347 346 345 348 354 354 353 353 352 350 349 350 349 349 349 350 352 350 348 346 345 343 346 347 347 349 352 350 352 351 351 352 352 352 351 351 350
320 323 334 336 340 339 344 350 351 351 352 353 353 353 353 352 353 353 351 352 349 349 347 347 347 348 347 349 349 348 348 348 348 347 347 347 347 347 348 348 346 346 347 348 347 346 345 345 345 346 345 348 354 353 352 352 351 350 349 349 348 348 349 350 350 348 347 345 343 342 345 347 346 345 351 351 352 353 353 353 352 352 352 351 350
325 324 333 341 340 341 343 350 351 351 352 353 353 353 353 353 353 352 352 352 350 348 350 349 348 349 349 347 348 345 347 347 347 347 346 346 346 347 346 347 347 347 347 347 347 346 344 345 345 345 345 347 353 353 352 351 351 350 349 349 348 348 349 349 349 346 345 344 342 340 344 346 346 346 352 351 352 351 352 352 351 351 351 350 347
325 324 332 339 340 341 343 347 350 351 352 352 352 352 351 352 352 353 352 352 352 351 350 349 348 349 350 350 350 349 348 348 347 346 346 346 346 346 346 346 346 347 347 347 347 346 345 345 345 345 345 347 352 352 351 351 350 349 349 348 348 348 348 348 347 344 344 342 340 339 342 345 345 346 351 352 352 350 348 351 351 350 351 349 347
326 326 327 334 336 341 344 347 349 349 350 350 350 350 351 351 351 351 352 352 352 351 350 350 349 349 349 351 350 349 349 347 347 348 349 347 347 346 346 347 348 346 346 347 349 348 348 347 346 345 345 346 351 352 351 351 349 348 348 348 348 348 348 349 346 343 343 340 338 338 339 344 345 345 350 352 351 349 349 345 345 345 346 347 346
325 327 327 328 333 337 342 344 346 346 346 347 348 348 349 350 350 351 351 352 351 350 350 349 346 345 347 345 346 348 347 347 348 349 349 349 348 346 346 346 348 347 347 348 348 349 349 349 348 346 347 347 350 351 351 350 349 348 348 348 348 348 348 348 344 343 342 338 337 337 339 343 344 345 352 353 352 350 347 343 343 344 347 348 350
323 325 327 328 333 335 339 342 342 343 343 344 344 346 349 349 349 350 350 351 351 349 348 347 346 347 348 346 343 346 346 345 344 346 347 346 345 348 349 348 348 348 348 348 348 349 349 350 350 347 347 346 347 352 351 350 349 348 348 348 348 348 347 345 342 341 342 337 335 335 338 342 344 346 352 353 352 351 346 345 347 349 350 350 349
316 318 319 320 322 329 335 340 341 340 341 342 342 343 345 347 348 347 348 349 350 349 348 349 349 348 347 346 347 347 345 343 346 346 344 343 347 349 349 349 348 348 348 348 348 348 347 348 347 348 346 346 346 348 351 350 349 347 348 348 348 347 344 342 341 339 340 337 334 335 337 339 342 346 352 353 350 351 349 349 350 350 351 351 350
311 312 312 313 314 322 324 329 335 339 340 340 341 341 342 343 344 346 346 345 347 348 348 348 347 347 347 347 348 347 346 347 348 346 345 346 346 348 347 346 348 348 348 348 348 347 347 347 347 347 346 347 347 347 347 350 349 348 347 347 346 345 340 339 339 339 337 335 333 336 337 337 340 346 351 351 351 351 350 349 349 350 350 350 350
310 310 310 311 311 311 319 322 324 327 336 338 339 340 341 342 342 343 344 345 345 346 346 347 345 346 347 347 347 345 345 346 346 346 346 346 345 343 342 343 348 348 348 348 348 347 347 346 346 347 347 348 347 347 344 346 349 347 347 347 345 342 338 342 341 337 334 334 333 336 337 336 342 348 351 350 351 350 350 349 349 349 350 350 350
311 308 308 309 310 310 310 317 319 322 324 329 334 337 338 340 340 341 342 343 343 344 344 345 345 344 346 346 345 346 346 346 345 346 346 346 346 344 343 342 344 348 348 348 348 348 347 346 347 347 347 347 348 347 344 344 347 344 342 345 342 339 335 337 339 337 334 334 334 335 335 336 342 348 351 350 350 350 350 349 349 349 349 349 349
309 308 305 306 308 308 309 311 314 317 317 321 324 328 332 337 338 339 340 341 342 342 342 342 344 342 342 344 346 345 344 344 344 344 345 345 347 343 343 345 346 349 348 348 348 347 347 346 346 346 346 346 347 346 344 344 344 344 342 342 340 338 335 334 337 335 333 333 334 335 334 337 340 349 350 350 349 349 349 349 348 349 349 349 348
305 306 303 304 305 306 308 308 310 310 310 314 319 323 327 330 333 336 335 337 338 339 340 341 342 342 342 341 339 338 339 340 342 343 343 342 341 341 343 345 347 348 348 348 347 347 346 346 345 345 345 346 346 346 345 344 343 344 342 341 339 337 334 330 335 333 333 332 334 334 335 337 340 349 350 350 350 351 348 350 349 347 347 344 347
302 303 303 302 303 304 305 306 309 309 309 311 314 317 322 324 327 330 332 334 336 336 337 338 338 338 338 336 334 332 331 332 335 336 339 337 335 335 337 342 347 347 347 347 347 346 345 344 344 344 344 344 345 346 345 344 342 340 341 339 336 334 331 331 334 333 332 332 334 335 336 339 342 349 350 350 350 350 349 346 346 347 346 345 346
301 301 301 302 302 302 303 305 307 309 308 310 312 314 317 320 323 325 327 329 331 332 333 334 332 329 329 329 328 328 328 330 327 329 330 334 334 332 334 342 345 345 346 346 345 345 344 343 343 344 344 343 344 344 342 342 342 339 338 336 333 329 333 334 332 332 333 333 333 335 336 340 345 349 350 349 350 350 348 347 346 345 347 345 345
301 301 301 302 302 302 302 303 303 308 307 309 311 313 314 318 318 319 321 323 326 328 329 327 324 324 325 325 324 328 331 332 333 332 326 329 327 327 330 337 341 341 342 343 344 343 343 343 343 343 343 342 339 338 336 339 338 336 337 334 329 333 334 333 331 332 332 331 332 334 336 341 347 351 349 349 349 348 347 347 345 347 346 346 344
297 299 300 301 301 301 302 302 301 305 304 307 310 312 312 314 314 315 317 319 320 321 325 328 325 329 326 328 331 330 331 333 333 329 332 331 329 325 326 331 337 339 338 340 341 341 341 342 342 342 341 340 335 338 335 329 329 333 330 327 331 333 332 331 331 332 331 331 331 333 336 341 347 349 349 350 350 348 346 347 346 345 345 345 344
296 297 298 300 300 300 301 301 300 303 302 303 306 307 307 309 312 312 315 317 317 318 321 324 328 330 331 332 330 332 332 332 332 331 331 327 330 326 326 328 332 335 335 336 338 339 340 341 342 341 340 336 336 336 335 331 330 324 324 328 333 330 331 330 331 333 332 331 332 332 335 342 347 349 349 349 349 348 346 346 346 344 344 344 343
295 296 297 300 299 299 300 301 300 302 301 302 303 303 304 307 307 308 311 313 315 316 317 319 322 326 329 331 332 333 332 332 328 324 322 329 331 324 324 326 327 330 329 331 332 335 338 338 337 337 335 332 335 335 335 333 333 332 332 333 332 331 328 330 331 332 332 331 332 331 336 342 346 348 350 350 349 347 346 345 346 345 344 344 344
294 295 297 298 298 298 299 300 299 300 301 301 301 300 302 305 303 304 307 308 311 313 314 317 319 321 323 326 329 330 331 331 330 331 331 330 330 330 329 327 328 330 326 330 329 329 330 329 330 330 332 332 333 334 334 334 333 333 333 333 330 329 327 329 331 331 332 331 331 329 334 340 346 348 348 350 348 346 346 345 345 344 342 343 344
294 293 295 295 297 298 298 299 298 298 300 300 300 300 301 301 300 301 304 304 307 308 311 314 316 318 320 321 323 326 328 329 329 329 329 330 329 327 328 328 328 328 328 329 327 326 326 327 327 328 331 332 332 333 333 333 333 333 332 331 328 327 328 330 331 331 331 330 329 327 332 338 346 347 347 347 347 347 347 345 345 345 342 342 342
291 292 293 294 297 297 297 298 297 298 299 299 299 298 299 299 299 300 301 302 304 305 307 310 312 316 318 319 320 321 323 325 326 327 327 328 327 328 327 327 328 328 328 328 327 326 326 326 327 328 330 331 332 331 331 332 333 332 330 329 328 328 328 329 328 329 329 329 326 325 330 334 344 347 346 347 347 347 347 346 345 345 343 344 343
291 292 292 293 295 295 297 297 297 297 298 299 298 298 298 298 298 299 299 302 303 302 304 305 308 313 315 317 318 320 322 323 324 325 326 327 326 327 327 327 328 328 328 327 327 326 324 325 327 328 329 330 330 330 330 330 330 330 328 328 328 329 329 329 328 329 329 329 328 324 328 332 337 342 346 347 347 347 347 345 344 343 344 342 343
291 292 292 292 293 295 296 296 296 296 297 298 296 297 297 297 297 297 298 302 300 301 302 303 305 310 313 315 317 318 320 321 322 323 324 325 326 326 327 327 328 328 328 326 327 326 325 325 327 327 328 328 328 328 328 328 328 327 327 327 327 328 328 329 328 329 328 328 328 327 326 331 337 340 343 346 346 345 344 343 346 344 345 345 343
291 292 291 292 292 294 294 295 295 296 296 296 295 295 296 296 296 297 297 299 299 300 300 301 305 307 308 310 313 316 318 319 319 321 322 323 325 325 325 325 327 328 327 327 326 326 325 324 325 326 327 327 326 326 326 326 325 326 326 325 326 327 328 328 328 327 327 328 327 326 323 328 333 339 341 342 345 347 347 342 344 343 344 344 343
291 291 291 292 293 293 293 294 295 296 295 294 294 295 296 295 296 296 296 297 298 299 298 301 305 304 303 304 309 313 315 317 318 320 321 322 323 324 324 325 324 326 327 327 326 326 325 323 324 326 326 326 325 324 324 324 323 323 322 324 324 324 324 325 326 326 325 326 326 325 324 323 329 333 336 340 342 344 345 343 342 343 343 342 344
290 290 291 292 292 292 293 294 294 295 295 294 294 294 295 295 295 296 296 297 298 297 298 300 302 301 302 303 306 308 309 310 312 314 317 319 320 322 323 323 323 324 326 325 324 325 324 323 324 325 326 325 324 323 324 323 323 323 322 323 323 325 326 325 324 324 324 325 325 325 325 325 321 326 329 336 341 340 342 343 343 344 345 345 343
290 290 290 291 291 292 293 294 294 294 293 293 293 294 294 294 294 295 295 297 296 296 297 298 299 299 300 302 303 303 303 303 307 313 315 317 318 319 321 322 323 323 324 325 325 324 323 322 322 323 323 323 322 322 322 322 322 322 322 323 322 322 322 323 322 321 323 323 324 325 324 322 322 319 322 327 335 337 338 339 339 340 341 342 341
290 289 290 290 292 293 294 294 294 293 294 293 294 294 294 294 294 294 295 295 296 296 297 297 297 298 299 301 300 300 300 303 308 310 311 313 316 318 319 320 322 323 323 324 324 323 322 322 322 321 318 321 321 321 321 321 320 319 322 321 320 320 319 321 321 322 322 322 322 323 323 322 322 323 324 320 325 330 335 336 338 338 340 340 339
289 290 290 290 290 291 293 293 293 292 292 292 293 293 293 293 293 294 294 295 295 295 296 296 296 297 298 298 298 299 300 304 305 307 309 310 312 314 317 319 321 322 322 323 323 322 322 321 321 320 319 320 321 320 321 320 319 318 318 318 318 318 318 317 317 319 320 320 321 321 321 320 320 321 321 323 317 320 329 334 337 339 339 338 338
289 289 289 289 289 290 292 290 291 291 291 292 292 292 292 293 293 295 294 294 294 295 295 296 296 297 297 297 297 298 300 301 302 306 304 305 308 311 314 317 319 321 322 322 322 321 321 322 321 322 318 318 319 319 320 319 319 319 318 317 318 317 316 316 317 316 318 320 319 319 320 320 321 320 317 320 323 321 321 330 333 335 336 336 337
288 288 287 288 289 289 290 290 290 291 291 291 292 292 292 292 292 292 293 293 293 294 295 296 296 296 296 296 297 298 299 300 302 302 301 302 306 309 312 314 315 317 319 321 320 320 320 320 320 320 320 318 318 318 318 319 318 318 317 316 316 316 316 316 317 317 315 318 318 318 318 319 317 313 320 321 322 324 320 323 329 330 330 332 335
288 287 287 288 288 288 289 290 291 291 291 291 291 291 292 292 292 292 293 292 292 293 294 294 295 295 296 296 296 297 298 299 300 300 299 301 304 306 310 312 314 315 316 318 320 321 321 320 319 319 319 319 318 318 317 318 318 317 317 316 315 314 314 315 316 314 317 316 317 317 318 318 318 319 319 320 320 321 325 323 323 324 320 326 333
287 286 287 288 288 288 290 290 290 290 291 291 291 291 291 291 291 291 291 291 291 292 292 292 293 294 294 295 296 297 297 298 298 298 298 300 301 304 306 310 312 313 313 314 318 320 319 320 320 319 318 319 318 318 318 318 317 316 315 316 315 314 314 314 314 316 317 316 316 316 317 318 318 318 319 319 319 320 323 325 325 324 324 319 331
286 286 287 287 287 288 288 289 289 290 290 290 290 290 290 290 289 290 290 290 290 291 291 291 292 292 294 295 296 296 297 297 297 297 298 299 300 301 304 307 310 311 311 310 313 319 319 318 319 319 316 316 317 318 318 317 316 315 312 314 314 314 313 313 315 315 315 316 316 316 316 316 317 318 318 319 319 320 318 322 321 324 323 322 324
285 285 286 286 287 288 288 288 289 290 290 289 289 289 288 288 288 288 288 289 289 290 290 290 291 292 293 294 295 296 296 296 297 297 297 298 299 300 302 305 308 309 309 308 310 314 319 318 317 317 316 315 314 316 317 317 313 310 311 310 309 311 311 313 314 314 315 316 315 316 316 315 316 317 317 318 319 319 319 316 320 323 322 322 322
285 286 286 286 287 287 287 288 289 289 289 289 289 289 289 288 287 287 288 289 288 288 288 289 290 291 292 293 295 295 296 296 296 296 297 297 297 298 300 302 305 307 306 306 307 305 313 319 318 316 317 315 314 316 316 315 311 309 306 304 304 306 307 311 312 313 314 314 315 315 316 316 315 316 316 317 318 318 319 319 316 319 321 322 321
284 285 285 286 287 287 287 288 289 289 289 289 289 288 288 288 288 288 288 288 289 289 288 289 289 290 291 292 294 295 295 295 295 296 297 297 297 298 299 301 303 304 304 304 304 302 304 313 317 315 313 315 315 316 315 316 311 312 310 306 302 303 303 305 305 309 312 313 314 314 315 316 316 315 316 316 316 317 317 318 318 317 317 316 316
284 284 286 286 287 287 287 288 288 289 289 289 290 289 288 288 288 288 287 286 285 287 287 287 288 289 289 291 291 293 294 294 295 296 297 297 297 297 299 300 301 304 304 303 302 301 301 303 312 316 315 311 312 312 315 316 314 310 303 306 305 306 299 303 306 302 303 310 313 314 314 314 315 314 315 316 315 316 317 318 318 317 316 315 315
284 284 286 286 287 286 287 288 288 288 288 289 288 288 287 287 286 285 285 284 284 284 284 285 287 288 289 289 290 292 292 293 294 296 296 296 297 298 298 299 301 302 304 303 301 301 302 303 305 314 314 312 310 312 313 315 314 314 309 305 300 301 302 304 305 299 301 307 309 313 311 314 314 314 314 315 315 315 315 316 317 317 316 314 314
284 285 285 285 285 287 287 288 288 288 288 288 287 287 286 284 283 282 280 280 280 281 281 282 282 282 284 287 289 290 291 292 294 296 296 296 297 298 298 298 300 301 303 303 302 302 302 301 302 306 316 315 312 311 310 313 314 313 313 312 309 304 303 304 304 298 298 298 301 308 311 314 314 313 315 314 314 315 314 315 316 316 316 315 314
284 285 285 285 286 287 287 287 287 287 287 287 286 286 284 283 282 281 281 280 280 281 282 282 282 283 284 284 286 289 290 291 292 294 295 297 297 297 297 298 299 301 302 302 301 300 301 301 301 302 308 314 313 310 310 311 312 312 311 310 304 305 309 305 302 302 297 298 299 304 308 310 313 313 312 314 314 314 314 314 314 315 315 315 314
284 284 284 285 286 286 286 286 286 286 286 286 285 285 283 282 281 281 281 281 280 280 281 281 282 283 283 284 285 286 287 289 291 293 295 296 297 297 297 297 298 300 301 301 301 301 301 301 301 301 302 311 313 311 311 312 309 309 310 309 305 307 309 309 308 304 302 299 298 297 299 306 309 312 313 313 313 314 314 313 314 314 314 314 315
284 284 284 285 286 286 286 286 285 285 285 285 284 283 283 282 281 280 279 280 280 281 281 282 282 282 282 283 284 285 286 287 289 291 294 296 296 296 296 296 297 299 300 301 301 301 300 299 299 299 300 303 314 313 313 311 311 309 308 307 305 306 308 306 298 299 302 301 300 302 303 302 307 309 312 313 314 314 313 314 313 313 312 313 314
283 285 285 285 285 285 285 285 284 284 284 283 283 282 282 282 280 279 279 278 279 279 279 280 280 281 280 281 281 282 284 286 287 289 291 294 296 296 296 296 296 298 299 300 300 299 299 299 299 299 300 299 306 313 312 313 312 312 310 308 305 305 306 304 300 301 303 305 301 302 303 301 302 304 306 311 312 313 313 313 312 313 313 314 314
282 284 285 284 284 285 285 284 284 284 283 282 282 281 281 281 280 279 278 278 277 277 277 277 279 279 279 279 279 280 282 284 286 287 289 293 295 295 295 295 296 297 298 299 299 299 299 300 300 300 299 299 299 307 311 312 313 312 310 309 307 306 305 304 304 303 302 299 300 302 303 305 306 303 302 306 310 312 312 312 312 312 313 313 313
Wind_Speed
4 1 1 4 4 4 6 7 8 8 7 7 8 8 6 8 8 8 7 7 8 8 8 8 8 8 8 8 8 8 7 6 6 6 6 6 7 7 7 7 8 8 8 8 9 8 8 9 9 9 8 7 6 7 6 7 9 11 12 10 9 7 8 7 9 10 6 8 10 9 9 10 11 12 12 14 14 14 10 10 9 6 5 10 13
6 3 2 2 5 5 6 7 7 7 6 6 7 7 7 8 8 8 8 8 9 9 9 9 9 9 9 9 9 9 8 8 7 7 7 8 8 9 9 9 9 9 10 10 10 11 10 10 10 10 9 8 7 7 7 8 10 11 12 11 9 11 11 8 10 8 6 7 7 6 8 11 10 12 11 15 14 13 11 10 10 6 5 16 14
5 3 1 3 5 4 5 6 6 6 6 5 6 6 7 8 8 7 9 9 10 10 10 10 10 10 10 10 10 9 9 9 8 8 8 8 9 9 9 10 10 11 11 11 11 12 12 11 11 11 11 9 8 7 8 9 9 9 11 12 10 9 11 10 10 7 7 7 7 7 9 11 12 13 14 15 15 14 12 11 10 10 8 16 13
6 3 2 3 4 4 4 2 4 4 4 4 4 4 4 7 8 7 9 9 10 11 11 12 11 11 11 10 10 9 10 9 9 9 9 9 9 9 8 9 10 11 12 12 12 12 13 13 12 12 11 8 5 8 9 8 8 9 12 13 12 10 9 10 9 9 8 8 8 7 4 4 7 13 15 16 15 13 11 12 12 11 16 14 13
9 5 2 3 1 2 4 2 1 1 1 1 2 4 6 5 7 8 9 10 10 11 13 13 12 13 12 11 10 10 10 10 10 10 9 10 10 10 8 8 10 11 12 13 13 13 13 13 13 13 12 9 7 8 8 8 8 10 11 14 12 12 11 11 9 10 9 9 9 6 5 5 5 10 14 15 13 11 11 12 13 15 16 15 13
9 9 1 1 3 2 3 2 1 2 2 3 4 5 7 6 5 6 8 11 12 13 14 15 14 13 13 12 11 11 11 11 10 11 10 11 11 10 8 7 9 11 12 14 13 13 13 14 14 13 13 10 7 8 9 9 9 11 11 14 13 12 13 12 11 11 10 9 9 5 5 5 5 6 16 13 11 10 12 13 15 16 16 17 15
8 9 8 2 1 3 3 2 2 1 3 5 6 6 7 7 7 7 9 12 11 13 12 10 12 13 12 13 12 11 11 11 11 11 12 12 11 10 9 9 11 12 13 13 13 12 13 13 14 13 13 10 8 8 9 10 11 12 14 14 15 13 15 14 13 12 12 8 5 5 5 6 6 3 14 12 10 12 14 16 17 18 18 18 19
10 9 9 8 6 3 1 1 1 2 3 4 7 8 8 8 7 8 10 10 10 13 13 13 14 13 14 13 10 11 15 13 12 12 12 12 12 11 11 11 12 13 13 13 13 13 12 12 13 14 13 11 8 9 9 11 12 13 14 15 16 15 15 14 12 11 12 6 5 5 6 5 6 5 11 10 13 14 17 18 17 18 18 18 13
12 9 8 7 6 10 9 8 8 8 7 8 8 9 10 10 9 8 10 10 10 11 12 13 12 14 16 14 11 12 14 14 14 13 12 12 12 12 12 12 12 13 13 13 13 12 13 13 12 12 13 12 9 9 10 11 12 14 15 16 15 16 13 14 15 13 8 4 5 4 6 6 5 6 12 12 15 16 13 16 16 17 18 14 13
10 11 10 7 7 11 10 9 10 11 12 12 12 12 11 11 11 11 11 11 11 12 13 12 14 16 15 14 12 13 14 14 13 12 10 12 12 12 12 12 10 10 11 13 14 14 14 13 13 11 12 12 8 10 11 12 13 15 16 17 16 17 15 14 15 11 6 5 5 4 5 7 6 6 12 15 18 16 14 9 9 13 10 13 12
10 9 8 8 8 11 10 9 7 9 10 11 13 14 14 14 13 12 13 13 13 11 11 12 11 14 16 16 14 14 11 13 11 9 10 10 11 12 12 10 8 10 11 12 14 15 15 12 9 13 15 14 9 12 13 13 15 15 17 17 16 18 16 13 13 7 6 5 4 4 5 11 7 6 15 16 19 18 12 8 12 14 16 16 15
13 11 10 10 10 11 11 6 8 8 8 9 12 13 14 15 15 14 13 13 15 13 10 12 12 14 15 12 11 15 13 13 14 9 10 10 12 10 8 9 10 10 10 11 13 14 13 12 11 13 16 14 14 12 14 14 15 16 16 16 17 16 16 12 9 7 6 5 6 5 4 7 7 9 18 18 19 18 13 11 13 17 19 19 19
14 12 11 11 11 16 15 11 7 9 9 11 12 13 13 15 16 16 15 14 14 14 13 12 13 13 11 11 12 10 9 12 14 10 12 14 13 10 11 10 11 11 11 12 12 13 15 14 12 13 13 15 14 13 15 15 16 17 16 18 16 16 14 14 8 8 8 6 5 6 6 7 7 12 18 20 20 18 16 17 17 18 18 19 20
12 13 11 11 11 17 21 20 15 11 11 11 12 11 12 13 15 16 17 17 17 15 13 14 14 13 13 12 10 9 10 11 10 9 11 12 13 11 12 14 13 13 13 13 14 14 15 15 14 12 12 12 13 13 15 16 16 18 17 17 16 15 15 11 9 9 10 8 6 6 7 7 7 14 18 20 21 20 17 18 20 19 20 20 20
11 12 11 11 11 11 18 20 21 20 13 12 13 12 12 12 12 14 16 16 18 18 18 15 15 13 12 13 10 10 11 10 10 10 11 12 14 15 17 17 15 14 14 14 14 14 14 15 14 12 12 9 10 11 14 16 17 16 17 17 17 15 15 9 8 9 9 9 6 7 7 7 11 14 18 20 20 19 19 20 21 21 20 19 18
8 10 11 10 10 9 9 14 19 21 20 16 12 11 12 12 13 13 14 15 16 17 18 18 18 15 14 14 13 11 11 12 12 11 11 12 14 16 18 18 17 14 14 15 14 14 14 13 12 11 10 10 9 10 14 20 18 17 16 17 17 17 16 11 8 9 9 9 7 7 7 7 14 17 19 21 22 21 19 20 21 21 19 19 18
10 10 13 12 10 11 11 10 13 19 19 19 18 18 14 10 13 14 14 15 15 16 18 19 19 20 19 15 13 11 11 10 10 11 11 11 13 15 16 16 15 13 14 15 14 14 12 11 11 11 11 11 10 11 17 19 19 19 21 21 18 19 17 14 8 9 9 9 7 6 7 7 13 17 20 21 22 22 21 20 20 19 20 20 21
10 10 14 13 13 12 12 11 11 13 15 15 16 18 18 18 15 12 13 14 15 17 17 16 17 17 16 14 13 13 10 10 11 11 12 13 13 15 19 17 15 14 14 14 14 13 11 11 12 12 12 12 11 13 17 18 19 19 21 21 21 19 17 17 9 8 9 8 8 6 6 8 13 15 20 22 22 22 22 20 22 20 17 20 19
10 10 12 13 13 12 12 11 11 12 14 12 12 14 19 19 19 18 16 16 15 15 15 16 16 15 15 15 14 13 13 12 12 13 14 15 14 15 17 19 14 14 14 14 13 12 12 12 12 13 14 13 12 14 17 19 19 20 21 20 19 20 20 14 9 7 8 8 8 7 7 11 14 18 22 22 23 23 22 20 20 20 21 22 20
8 9 11 12 11 12 11 10 11 11 12 11 12 13 16 19 19 18 18 17 16 15 16 15 16 15 14 14 14 13 11 11 13 12 14 17 18 16 18 15 15 15 15 14 13 13 13 13 13 14 14 14 14 15 18 20 20 18 18 20 20 19 13 10 9 8 7 7 8 7 8 12 13 18 22 22 23 24 23 23 22 22 23 24 22
9 9 10 11 12 13 13 11 11 11 13 11 10 10 13 17 15 18 18 17 17 15 16 15 14 13 14 13 12 10 9 8 10 9 12 11 14 16 15 15 15 16 15 14 14 14 14 14 14 14 15 15 14 17 18 20 13 16 18 18 20 14 10 10 9 7 7 7 7 7 12 13 14 18 23 22 24 24 24 24 24 19 22 24 24
10 9 10 12 11 11 12 13 12 12 14 11 9 9 10 13 11 12 12 14 14 15 11 10 10 9 12 11 8 8 8 9 9 10 10 11 12 15 16 16 16 16 15 15 15 15 15 15 16 15 15 13 14 10 10 12 18 21 14 16 13 9 10 9 9 8 7 7 7 8 13 13 14 19 22 23 25 25 24 24 22 22 23 24 23
9 8 8 10 10 10 10 11 13 11 13 12 10 10 12 10 10 11 10 12 12 13 12 11 9 9 9 9 8 7 8 9 9 10 10 14 14 15 16 17 17 17 16 16 16 16 16 16 16 15 13 14 10 7 6 8 12 20 20 17 11 8 10 9 10 9 9 8 7 11 13 13 17 20 22 24 25 26 25 27 23 25 23 25 24
7 6 6 6 10 10 10 10 13 12 12 11 10 11 12 10 11 11 10 10 10 10 11 11 10 10 10 9 8 9 9 8 13 16 14 11 11 15 18 19 19 18 17 13 14 14 16 16 15 14 11 7 6 7 7 8 9 10 11 12 11 10 12 12 9 9 8 9 8 13 15 15 18 21 24 25 27 26 28 26 24 25 27 27 26
6 6 6 9 8 12 9 9 12 11 11 11 11 12 12 9 11 12 12 11 10 11 10 10 10 11 11 9 9 9 9 8 8 9 9 9 9 9 8 8 8 9 13 9 8 9 9 7 7 8 7 7 8 8 8 8 9 10 11 10 10 11 11 11 10 8 9 9 9 15 17 17 19 22 25 27 27 28 27 26 26 27 26 26 26
6 6 7 8 7 10 7 7 9 9 9 10 9 11 12 10 12 12 12 12 11 12 11 11 10 10 10 11 10 9 9 8 8 8 9 10 10 8 8 8 8 9 8 8 7 8 8 8 8 7 7 7 9 9 10 10 10 10 10 10 10 10 10 10 10 9 9 7 8 16 18 18 20 23 24 27 28 30 29 30 30 29 29 29 28
6 5 4 6 6 9 6 7 8 8 8 9 7 9 9 8 9 11 12 11 11 12 12 12 13 13 10 9 10 11 10 9 9 9 9 8 10 10 9 8 9 8 8 8 9 9 8 8 7 8 7 8 9 9 9 9 9 10 10 11 11 11 10 9 6 7 7 6 9 19 17 18 20 22 23 24 27 29 30 30 30 29 30 29 26
5 6 5 7 6 10 7 8 8 8 8 9 8 9 7 8 9 9 10 11 11 10 12 13 13 13 13 11 9 9 10 10 10 10 10 9 9 10 10 9 9 9 9 9 10 8 8 8 8 7 8 8 9 9 8 9 9 10 11 12 12 12 12 10 10 8 6 7 7 15 17 18 18 19 21 23 26 26 26 29 30 31 32 32 30
5 7 6 7 6 8 8 7 8 8 9 9 9 9 8 7 7 8 9 10 9 9 11 13 13 12 12 13 11 11 10 10 10 11 10 10 10 9 9 10 10 10 9 10 10 9 9 8 8 9 8 8 8 8 8 9 9 9 11 13 13 13 13 11 10 10 8 7 7 11 18 18 18 18 20 25 26 28 29 28 28 31 32 32 32
5 6 6 6 5 7 9 8 8 9 9 9 9 9 9 8 8 9 9 9 8 10 11 10 10 11 12 14 15 12 11 11 11 10 11 12 11 10 9 9 10 8 8 10 10 10 10 9 9 9 9 9 9 8 8 9 10 10 10 11 12 11 11 12 11 8 7 8 7 7 16 17 15 16 20 23 27 28 26 27 28 27 28 31 31
4 7 6 6 5 6 9 8 8 9 9 11 11 11 11 10 10 10 9 9 10 10 10 11 9 10 12 15 14 13 12 12 11 12 12 12 12 11 11 9 9 10 10 10 8 10 10 11 11 11 10 10 9 8 8 7 7 7 7 9 8 5 4 4 6 7 9 7 7 7 8 14 16 15 14 17 24 26 25 26 28 31 32 31 33
5 6 5 4 4 7 10 9 8 10 11 12 12 12 12 12 12 11 11 11 11 10 10 10 10 10 11 13 13 13 13 13 14 13 13 13 13 12 12 10 10 9 9 9 9 10 10 10 12 11 10 9 8 8 8 7 8 8 8 8 7 10 10 8 6 7 8 8 9 7 6 6 9 10 10 12 21 23 24 26 28 32 33 33 33
4 4 5 5 8 9 9 9 8 10 11 12 11 10 10 12 13 12 11 11 11 10 10 10 10 10 11 11 12 14 12 12 13 13 13 13 13 14 12 11 11 10 10 11 12 10 9 8 8 8 7 7 8 8 8 8 10 9 9 11 10 10 7 8 9 7 7 8 8 8 7 6 5 7 10 11 11 21 23 25 27 28 36 35 34
4 5 6 8 8 8 8 8 10 12 12 11 10 10 10 10 10 11 12 13 10 11 11 10 10 10 10 11 12 12 13 12 11 13 12 12 13 13 13 13 11 12 11 11 11 10 9 10 10 10 10 10 11 10 9 9 6 6 10 10 8 8 7 7 8 8 8 7 6 7 7 6 5 4 6 11 11 14 19 27 31 30 29 32 33
6 7 8 9 11 10 8 8 10 11 12 11 11 11 11 10 11 11 11 12 13 12 11 10 10 10 10 10 10 12 12 12 11 11 12 12 13 13 13 13 13 13 12 11 10 9 11 12 10 11 10 10 11 11 11 10 10 9 6 7 8 7 7 8 6 7 8 7 7 6 7 6 5 4 5 5 9 13 18 22 29 34 33 33 32
7 7 7 8 9 9 8 8 10 12 11 12 12 12 11 10 10 11 12 13 12 12 11 11 11 10 10 11 11 11 12 11 11 10 10 11 12 13 12 13 15 13 14 13 11 10 10 12 14 14 12 12 12 11 10 10 10 11 9 8 8 9 7 6 8 5 6 6 5 6 7 7 8 6 5 4 5 8 12 19 18 18 29 30 29
6 6 7 8 8 8 8 9 11 11 12 14 14 13 12 12 13 14 14 13 12 12 12 12 11 11 10 11 12 12 10 11 11 10 10 11 11 12 12 13 13 13 12 13 12 8 10 11 11 13 15 14 13 14 11 11 10 11 10 9 9 9 9 8 6 6 4 6 6 5 6 6 6 8 5 5 5 6 11 11 13 15 22 25 30
5 5 5 6 6 6 7 8 10 10 11 12 12 11 11 14 14 13 13 13 13 12 12 12 12 12 12 12 13 12 11 10 10 9 9 10 10 12 13 14 12 12 12 14 15 12 13 13 13 13 14 13 13 14 13 11 10 10 9 10 9 7 7 8 8 6 6 4 5 6 6 5 7 6 6 4 3 6 7 12 16 13 5 18 24
5 5 5 5 5 6 7 9 9 11 11 11 10 10 13 14 14 14 14 14 12 12 12 13 13 14 14 14 13 12 11 11 10 9 8 9 10 11 12 14 12 11 12 13 15 14 14 16 16 15 14 14 15 15 15 13 12 11 10 11 10 9 7 6 8 7 7 7 4 6 5 6 7 6 7 6 5 5 7 10 9 9 10 8 17
5 5 5 5 6 7 6 7 8 10 10 8 9 11 12 14 16 16 16 13 12 12 13 13 14 15 15 15 14 13 11 11 10 8 7 8 9 10 12 13 13 12 12 13 15 15 17 17 19 22 17 13 12 14 14 13 11 12 10 8 8 9 8 8 8 8 7 7 7 6 6 4 6 7 5 7 6 7 5 8 11 11 9 12 17
5 5 6 6 7 9 9 9 9 10 10 11 11 12 13 15 16 17 17 15 13 14 14 14 14 15 18 17 15 13 12 11 10 8 8 8 8 9 11 12 13 12 12 13 14 18 16 15 14 12 17 16 11 9 13 15 13 8 7 7 6 5 8 9 9 8 8 7 5 7 6 5 5 6 6 5 7 9 8 4 8 12 11 8 10
7 6 6 7 7 6 5 7 9 10 10 10 11 12 12 12 15 17 17 16 14 14 15 14 15 15 18 18 14 13 12 12 10 8 8 7 8 9 9 11 12 12 12 13 12 13 19 17 14 16 19 20 15 16 14 12 13 16 13 7 4 4 4 7 8 7 8 7 6 7 8 8 7 6 6 5 6 9 10 10 5 7 12 12 8
5 5 6 7 7 5 5 8 10 11 11 11 11 12 13 15 16 17 15 14 13 14 15 16 18 20 18 17 16 14 14 12 11 9 9 8 8 8 9 9 11 12 12 13 11 14 18 19 18 15 10 12 14 16 18 19 14 13 13 12 7 5 1 3 2 5 8 8 7 8 8 8 9 7 8 6 6 7 9 11 10 7 7 8 8
5 5 7 8 4 5 8 10 11 11 11 11 13 14 15 16 14 12 15 15 18 18 21 19 17 16 16 16 16 14 13 12 11 11 10 9 8 8 8 8 10 11 11 11 10 12 17 18 19 17 20 16 11 10 16 18 15 16 12 13 14 14 9 8 8 2 2 7 8 7 7 8 10 9 7 9 7 9 8 11 13 11 9 7 7
5 6 7 7 4 8 10 11 11 11 12 14 15 14 15 15 14 15 13 14 13 12 12 12 12 13 15 14 14 14 15 14 13 13 11 10 8 8 7 8 9 11 10 10 9 9 13 15 20 19 14 15 14 12 15 17 18 21 17 10 5 7 13 14 11 0 1 7 7 9 8 10 10 11 10 9 7 7 10 11 13 12 12 8 8
5 5 5 4 6 9 10 11 9 10 13 14 14 13 14 14 15 15 17 16 16 15 14 17 18 19 18 18 18 16 17 16 14 12 11 10 10 8 7 7 8 10 9 9 8 8 10 14 15 19 22 21 18 15 14 15 17 19 17 19 20 17 16 11 15 8 0 1 3 6 10 11 11 11 11 11 12 10 9 12 12 14 15 11 10
5 5 4 5 6 9 8 8 9 11 12 12 13 13 14 13 15 14 14 14 16 14 14 13 13 15 14 19 18 16 17 18 17 14 12 12 10 8 7 7 7 8 10 8 9 9 9 11 13 15 20 12 14 17 18 16 13 16 14 10 3 3 15 21 15 10 10 3 3 7 8 9 12 13 12 14 14 13 11 11 13 13 14 13 11
5 4 4 5 7 8 7 8 11 12 11 11 13 13 13 14 16 16 14 14 12 18 18 14 13 14 17 17 14 14 16 18 18 15 13 12 11 9 8 7 6 6 9 8 8 8 9 10 11 14 17 17 12 15 17 17 17 14 16 13 5 6 16 18 21 24 20 15 8 1 1 7 8 12 13 14 14 14 14 12 13 12 11 13 11
4 4 5 6 6 6 7 10 13 12 11 12 13 13 12 13 13 13 16 13 14 14 14 15 14 12 17 15 15 17 15 17 18 17 15 14 12 10 8 7 5 5 7 8 7 7 9 11 11 12 15 17 18 17 17 17 17 18 13 12 8 10 13 11 6 4 11 18 14 15 13 5 8 8 10 13 13 12 13 14 13 13 12 13 13
4 4 5 5 5 6 10 12 13 11 10 12 13 15 14 12 13 14 16 16 14 14 14 16 14 14 14 15 16 16 16 17 17 17 16 16 14 10 8 7 6 5 6 7 7 7 9 10 10 10 15 18 18 14 18 17 18 16 19 16 13 12 14 9 7 13 11 16 17 15 15 16 15 9 6 12 13 13 11 12 13 12 12 14 13
5 5 6 5 5 8 11 14 13 11 10 12 14 15 13 12 12 14 16 17 18 17 18 18 16 16 15 16 15 16 16 17 16 16 15 15 15 11 9 8 7 5 6 7 6 6 8 9 9 10 11 17 17 20 14 20 18 18 20 16 18 19 20 19 18 17 16 12 10 16 15 15 17 14 8 6 12 11 12 10 12 11 11 11 12
Wind_Direction
313 59 93 149 161 173 192 192 188 179 184 192 211 216 216 227 214 218 225 217 225 221 220 217 212 209 211 213 218 227 234 237 242 247 257 259 264 266 266 270 269 268 266 263 263 259 257 255 256 258 256 254 247 220 218 206 203 197 200 196 190 160 175 199 215 231 154 129 132 142 138 128 124 139 140 137 140 122 115 116 115 118 118 111 129
308 316 147 144 154 168 183 189 193 188 192 203 211 215 213 231 227 213 215 225 225 228 227 225 225 222 218 216 217 221 224 231 238 248 257 262 267 273 276 278 281 282 282 278 275 272 268 265 263 263 260 255 255 229 215 204 205 201 187 186 188 173 191 190 217 215 130 131 136 138 127 124 139 140 157 143 137 121 118 119 116 106 111 138 143
306 1 140 151 139 153 163 184 188 192 207 216 220 225 210 217 238 216 215 221 226 229 234 234 230 229 228 226 225 221 223 228 235 242 247 257 263 265 267 271 277 280 282 284 283 280 276 272 270 267 266 260 259 217 223 213 207 197 177 175 187 176 187 189 210 170 141 136 132 129 122 140 149 147 166 145 140 129 123 123 120 123 133 132 132
336 328 128 159 141 133 151 157 187 209 231 237 231 228 228 207 230 236 228 225 229 234 235 235 235 232 231 233 234 233 233 235 239 243 243 248 256 256 239 245 259 274 279 281 281 282 281 277 272 269 267 267 223 204 220 219 207 191 182 180 181 185 196 200 194 159 149 145 138 129 123 129 135 143 152 144 139 132 130 130 130 136 137 133 127
349 326 127 142 148 149 152 129 56 298 217 272 243 234 246 242 223 232 235 235 237 237 239 239 240 238 233 235 237 236 235 238 241 247 254 252 253 257 249 229 242 258 271 278 282 281 280 279 276 271 268 267 197 205 211 214 203 199 189 186 177 177 191 205 189 156 158 154 144 134 133 130 139 152 147 148 138 134 138 137 138 138 134 128 127
355 334 18 166 148 183 172 145 146 1 309 252 246 240 251 251 258 246 243 243 243 245 240 237 235 237 237 236 237 241 240 242 246 252 254 254 255 263 265 250 248 258 265 273 277 279 280 278 275 271 267 265 193 199 207 205 201 201 187 188 188 180 181 203 186 159 162 163 146 142 140 138 142 153 155 143 139 140 143 142 143 140 135 135 136
2 357 347 25 214 163 180 181 189 212 324 301 278 264 241 241 243 251 256 254 266 273 274 283 277 267 272 248 246 258 252 242 247 252 255 256 257 258 265 263 259 261 261 266 270 272 275 276 274 270 268 265 207 195 202 204 204 205 199 193 190 185 183 193 184 164 166 166 161 149 150 152 142 141 157 150 147 149 147 148 148 146 144 140 145
13 8 17 13 358 45 148 355 311 328 323 316 315 303 283 264 249 241 249 260 238 246 245 241 253 258 255 260 249 235 254 257 255 258 259 261 262 262 261 261 263 262 260 261 263 270 270 267 268 268 266 264 220 197 196 203 206 203 203 199 192 194 190 183 178 168 170 170 169 156 159 156 147 138 153 150 155 159 157 152 152 148 143 146 140
13 13 16 17 19 31 19 3 347 336 328 322 318 316 309 297 279 261 253 250 251 248 251 253 249 248 243 241 250 253 246 248 261 261 259 260 260 260 264 263 258 261 262 260 263 264 264 257 253 257 261 259 221 204 192 199 201 204 203 200 194 195 188 185 173 169 170 178 174 159 162 156 152 146 162 158 155 162 171 154 152 146 145 140 142
14 13 14 16 12 28 26 19 2 353 342 337 331 325 316 304 298 287 273 263 257 258 256 247 245 250 255 241 246 251 249 253 257 261 262 255 256 258 261 263 262 259 262 264 263 263 259 263 272 275 254 252 222 199 195 197 198 203 200 198 197 193 191 190 169 166 167 175 182 171 162 159 159 156 164 164 160 164 174 170 141 144 150 146 148
15 7 7 8 4 11 14 14 8 354 343 335 328 325 316 307 301 295 292 289 281 275 268 264 266 267 263 279 276 264 270 269 265 273 272 259 252 257 258 257 254 253 249 253 259 261 266 272 268 271 283 283 238 194 195 198 202 197 195 197 196 195 193 188 160 167 167 175 190 188 172 165 164 164 168 166 164 168 164 176 147 151 149 151 152
15 10 5 359 352 354 359 4 350 342 330 323 320 317 316 312 304 299 294 292 288 280 266 263 252 250 255 241 252 276 299 313 296 288 289 294 278 253 232 230 238 242 241 245 254 262 266 269 263 256 265 268 273 201 196 197 202 204 195 197 197 192 192 178 167 167 177 183 187 198 180 172 171 173 173 170 171 165 163 160 159 157 156 155 154
25 21 18 15 13 4 356 349 340 335 327 324 322 321 318 318 317 312 309 304 297 291 274 257 248 252 261 267 263 264 246 251 262 265 270 263 259 242 232 233 236 239 244 250 253 256 260 262 264 257 249 248 256 231 197 197 197 206 199 198 195 193 189 180 175 173 185 194 191 190 185 180 177 180 178 172 174 168 170 168 164 163 161 160 155
31 24 22 21 18 14 14 11 354 330 326 324 322 318 316 316 317 317 316 315 312 306 291 277 272 257 257 261 260 251 252 257 263 259 248 253 257 257 259 247 238 242 245 246 250 255 259 263 267 267 258 248 242 243 215 197 197 201 201 202 197 192 190 185 182 179 191 190 195 187 181 182 183 182 183 177 174 170 174 174 171 166 166 164 158
36 28 21 20 18 18 15 12 10 7 347 328 325 317 312 314 312 312 314 312 312 313 308 300 287 279 267 259 246 244 250 255 261 261 259 258 254 252 253 253 244 239 241 243 245 250 254 259 263 266 268 263 246 232 229 218 203 202 204 201 199 192 192 192 192 184 188 192 200 184 181 177 186 184 183 182 176 175 179 179 173 171 169 165 161
32 31 22 19 16 12 12 11 13 7 3 356 344 322 312 313 309 307 304 303 305 304 304 306 303 294 281 277 269 254 246 256 259 261 262 263 256 247 248 250 247 236 238 241 243 244 248 254 258 260 259 255 249 219 213 227 210 198 218 207 198 194 196 197 196 190 188 191 197 184 185 176 183 186 184 182 180 178 182 180 176 173 170 166 162
21 22 24 16 13 13 8 6 7 10 5 359 355 356 344 311 315 311 304 303 300 301 302 300 299 297 295 286 278 259 246 241 244 248 256 265 268 268 258 243 238 236 238 240 240 239 239 243 248 253 252 250 245 217 211 217 224 195 203 204 198 194 196 198 195 193 190 186 185 181 187 178 187 184 188 183 180 181 184 179 180 176 170 169 164
20 23 21 15 13 9 9 8 4 7 5 2 358 354 353 351 341 321 315 308 304 303 297 293 291 295 294 290 284 285 270 254 252 254 255 258 257 256 257 247 237 235 239 238 239 235 231 234 243 249 249 244 242 221 209 213 217 209 197 199 196 194 196 197 195 194 189 181 178 179 180 190 184 187 189 182 180 181 183 182 181 170 166 178 157
20 25 24 18 13 9 7 8 9 7 3 1 358 353 353 351 348 346 337 324 314 303 296 289 286 283 284 285 284 277 278 269 256 252 254 253 250 248 253 248 234 232 233 235 233 231 232 234 238 245 249 245 238 223 206 209 213 214 200 198 197 194 195 195 194 193 190 185 176 174 183 186 184 190 188 182 180 180 181 190 185 167 174 175 159
17 20 21 19 13 12 9 7 7 9 5 358 355 353 353 352 351 347 343 336 323 311 303 295 289 285 283 282 280 274 264 269 264 254 249 248 247 242 235 233 234 233 233 232 230 234 237 239 240 241 245 244 235 222 209 207 210 216 215 200 197 198 204 194 190 191 188 190 177 174 185 182 187 193 191 185 179 181 183 181 179 174 174 171 165
10 16 18 12 10 10 8 9 5 7 4 359 353 351 349 351 351 348 345 343 336 322 309 304 297 290 285 279 277 274 268 262 264 259 245 241 240 243 241 237 234 234 231 227 229 234 240 242 243 242 241 239 231 222 211 207 199 230 212 213 199 191 199 202 191 187 186 190 185 185 184 185 188 193 192 185 182 183 182 179 176 175 178 171 166
5 4 9 11 9 7 6 7 4 2 4 1 355 350 345 347 348 348 346 345 342 337 326 313 301 294 291 290 281 271 267 264 258 254 257 250 244 241 243 241 239 234 228 226 226 230 237 241 241 242 242 236 228 223 216 190 189 223 220 239 212 194 193 213 194 185 183 193 189 190 189 185 191 193 196 185 181 182 180 176 175 180 178 171 168
6 359 360 8 8 3 5 6 3 0 3 2 354 349 347 346 345 344 341 343 340 339 336 329 318 305 294 288 286 281 272 265 259 251 245 247 245 239 236 236 237 235 228 224 225 227 231 238 241 243 240 233 225 217 200 191 204 213 200 210 212 189 194 207 206 185 184 185 193 191 187 191 194 196 196 189 184 182 178 177 175 178 175 175 167
357 352 342 0 9 8 3 3 2 359 0 360 354 350 347 348 346 343 342 338 337 335 333 330 327 320 311 299 291 288 281 273 268 260 252 249 249 244 239 233 231 230 224 225 227 226 230 236 240 240 237 232 221 212 204 195 204 204 205 201 201 191 193 194 206 198 188 181 188 193 187 191 199 200 197 187 186 180 180 176 175 178 176 172 167
345 337 359 0 3 6 0 4 6 354 360 359 352 350 342 344 347 343 341 340 336 334 329 326 323 323 321 313 303 294 291 290 285 281 273 256 245 245 244 239 234 230 221 223 217 224 227 231 237 238 233 228 219 211 202 200 201 199 200 199 197 194 194 193 200 202 197 186 183 188 190 192 196 203 201 187 189 178 176 175 177 180 182 172 167
350 5 354 350 356 1 355 359 8 351 0 357 349 345 339 347 348 342 338 337 337 335 331 327 322 320 321 319 314 307 300 291 290 283 275 273 265 244 235 228 220 221 209 219 216 215 217 221 224 226 225 222 215 210 204 202 200 197 196 195 195 194 198 199 194 200 196 184 183 190 192 191 196 201 201 191 188 180 178 179 178 178 175 173 170
351 341 342 352 346 355 352 358 3 353 355 349 344 347 336 342 341 339 337 334 337 335 334 332 327 320 316 316 318 315 310 305 299 296 290 277 271 267 245 221 220 215 206 211 216 214 211 215 217 217 216 217 216 209 203 204 204 197 192 194 192 191 192 197 200 187 195 199 183 192 192 193 197 199 197 191 187 183 181 179 176 175 173 170 166
357 336 347 348 349 355 351 355 356 356 352 347 345 342 332 337 337 337 334 331 333 334 335 330 325 322 320 315 311 309 309 311 308 303 297 290 275 269 267 248 222 218 205 209 212 212 210 211 212 212 210 214 213 208 201 200 202 197 191 192 192 192 189 187 178 183 179 189 201 191 189 195 200 197 190 186 185 186 185 181 177 179 173 170 169
358 349 335 351 347 353 350 351 355 354 350 345 344 337 331 333 334 335 334 331 328 334 332 323 323 324 323 321 321 315 314 309 305 304 301 292 284 272 261 258 243 223 206 210 206 207 208 205 208 209 205 207 206 206 200 199 196 196 194 191 195 194 190 185 185 175 170 176 195 194 187 192 197 190 189 188 186 189 190 185 189 181 174 168 167
345 342 343 345 341 353 351 349 352 351 347 345 341 338 335 333 333 332 330 330 330 331 328 322 319 327 329 329 325 320 316 311 308 305 302 298 291 280 266 259 261 254 230 213 206 205 204 200 205 207 202 203 199 196 193 196 193 191 192 195 197 195 187 182 181 168 169 166 174 190 185 183 188 191 190 191 188 187 187 192 186 183 169 164 166
340 346 337 339 332 349 351 345 348 350 349 347 343 339 336 335 334 331 330 331 329 330 330 323 324 330 327 325 322 324 323 321 318 316 312 305 298 291 281 270 258 247 234 231 208 209 203 199 197 200 201 199 196 181 188 187 182 174 185 196 183 142 154 175 163 160 161 159 163 169 179 178 181 184 197 196 189 186 185 188 184 180 177 166 165
347 336 323 316 333 352 353 348 349 350 349 345 341 338 337 335 333 332 330 329 329 328 325 323 325 324 324 319 321 324 327 324 322 319 316 311 305 299 292 278 267 264 250 238 232 217 206 203 201 200 198 193 185 181 177 169 173 172 160 164 169 171 176 164 164 170 162 163 158 159 164 163 156 160 175 199 192 190 191 182 185 170 169 164 162
309 311 321 343 356 354 352 347 348 348 346 340 337 333 332 333 332 329 325 323 323 321 319 319 318 320 317 316 318 320 321 320 316 316 316 312 308 304 296 283 274 263 257 244 225 216 211 201 201 189 185 185 178 180 175 180 177 175 172 173 167 171 165 158 156 164 170 167 160 155 156 161 155 154 168 181 192 192 201 190 188 180 165 164 163
330 333 352 358 351 354 352 349 350 346 339 335 334 331 328 325 322 322 322 320 317 315 313 310 311 312 310 311 314 314 315 314 317 320 316 312 309 304 298 293 280 266 251 250 243 230 201 195 191 183 184 180 183 179 176 177 170 179 178 168 168 160 154 159 155 162 166 166 157 157 147 150 146 146 174 192 186 200 201 201 182 180 168 163 164
353 357 1 354 357 351 351 349 344 340 336 334 332 328 324 322 321 320 319 318 315 313 308 305 305 306 307 305 306 308 307 308 316 315 316 317 315 311 306 299 290 275 260 243 243 238 205 195 184 189 183 185 183 180 180 178 170 170 170 162 159 151 152 148 146 164 167 152 148 153 134 132 125 141 163 178 193 207 198 194 198 170 169 167 162
360 356 356 354 352 350 351 349 344 342 341 334 328 324 322 322 321 320 318 314 309 306 305 301 300 298 298 301 302 299 300 304 309 313 313 315 312 308 306 305 301 288 265 249 235 227 217 201 192 183 181 187 179 181 179 178 177 176 168 170 167 160 155 152 145 161 151 134 151 143 140 148 147 154 156 157 180 215 209 186 190 192 163 160 160
351 359 356 356 353 351 350 347 342 340 337 332 328 325 325 326 325 319 315 312 311 308 303 301 297 295 294 296 297 295 291 296 302 306 310 311 309 306 305 303 302 296 285 265 244 230 227 215 192 191 187 179 182 177 180 179 179 178 170 171 169 167 161 155 149 141 137 152 148 140 138 148 141 142 156 164 168 171 209 192 193 199 178 167 169
348 352 348 354 350 345 343 340 336 335 332 328 326 326 327 326 321 317 312 310 309 307 307 305 300 296 293 290 290 288 286 288 292 298 300 302 303 304 304 301 299 296 290 274 254 229 219 216 207 199 192 182 183 177 177 172 172 171 173 170 167 166 167 159 154 149 138 145 146 146 153 145 140 144 145 155 145 160 175 181 162 164 176 181 166
343 335 343 350 356 345 341 334 332 331 328 325 324 326 327 323 318 315 312 310 307 307 307 306 304 298 291 287 285 284 281 281 285 286 293 299 302 304 304 301 299 297 296 294 270 239 220 214 207 199 196 192 180 179 172 168 165 166 170 170 163 161 159 163 150 157 149 146 158 142 143 154 142 156 148 144 153 147 161 161 151 145 158 219 170
335 333 334 350 348 341 335 329 329 329 327 326 327 328 328 327 323 320 314 309 306 307 309 307 306 301 293 286 281 278 276 278 277 277 282 290 298 300 302 302 299 298 300 300 290 256 227 225 214 188 186 191 194 177 168 163 160 161 155 148 153 149 154 158 158 158 147 147 157 156 145 152 145 147 152 149 145 137 143 170 154 146 145 161 167
324 321 344 348 346 336 335 335 333 335 337 333 332 333 332 328 324 320 314 310 311 313 310 310 307 305 300 291 282 275 275 275 273 269 274 285 288 293 298 300 299 298 297 294 297 285 252 220 214 210 183 185 189 187 176 156 146 131 136 118 104 133 148 151 156 156 158 149 157 154 145 142 148 152 152 156 151 142 133 121 144 143 140 131 164
338 342 340 329 325 328 332 325 333 335 333 327 324 326 329 327 321 316 312 310 314 316 313 313 309 303 299 292 283 280 278 274 268 263 268 272 284 290 294 298 298 295 293 292 294 302 285 240 220 203 187 183 184 178 174 158 160 158 154 142 91 84 108 138 146 156 151 156 155 155 151 151 156 153 139 157 154 147 143 134 112 130 135 142 163
322 325 317 325 329 334 333 335 334 335 331 327 327 326 326 325 321 311 311 317 318 318 311 308 306 300 295 295 291 285 281 275 265 265 267 271 270 281 286 289 292 291 291 295 305 307 299 280 227 206 202 193 179 179 172 174 168 166 148 132 149 132 55 99 84 154 158 154 157 159 158 159 156 155 152 152 157 150 147 138 134 125 119 127 134
328 324 335 333 329 334 336 337 336 334 330 329 327 324 323 321 320 326 329 321 314 313 307 302 294 291 295 296 293 289 280 272 270 267 265 263 264 270 280 285 287 287 287 289 295 292 289 293 280 235 189 173 186 181 181 182 164 148 163 179 172 166 155 188 172 179 142 142 153 161 161 161 158 153 153 155 167 154 152 144 138 138 132 129 133
312 325 334 338 339 339 340 338 336 335 333 331 330 330 330 331 330 322 315 309 298 294 296 297 309 312 305 296 295 293 289 282 275 267 258 260 260 260 266 277 282 284 280 280 290 281 286 286 289 265 225 182 176 181 186 188 177 175 160 149 111 165 189 175 155 3 153 141 173 171 167 162 162 159 160 160 157 160 152 151 145 144 136 140 140
313 325 339 339 341 340 338 335 333 332 332 330 333 337 333 330 329 328 325 324 316 317 319 322 321 315 313 310 306 301 295 288 281 270 262 257 255 252 256 268 276 283 277 275 278 287 284 295 284 290 235 197 179 176 181 190 188 189 181 175 173 177 174 148 152 182 338 35 161 181 171 170 167 166 163 162 162 161 163 155 154 152 146 150 147
324 335 353 339 337 335 330 328 329 328 329 329 337 336 330 327 325 319 312 308 307 305 305 305 304 305 303 300 298 299 300 292 281 272 264 255 252 250 251 256 266 274 279 273 283 285 292 286 301 288 285 227 181 177 180 180 188 195 191 191 26 56 151 147 175 142 160 208 180 180 181 182 173 171 169 167 166 162 165 161 155 154 150 148 150
332 352 339 331 333 328 328 329 326 326 328 333 334 336 329 326 323 321 315 311 307 304 305 303 300 300 300 302 304 302 303 302 296 281 266 256 250 247 245 248 254 265 274 273 275 284 286 292 289 291 292 278 215 188 184 179 182 190 190 182 156 121 164 178 170 163 167 171 188 187 62 174 182 177 174 167 168 168 162 164 156 155 155 150 151
350 334 325 327 325 324 326 326 324 326 329 334 333 330 328 323 319 315 313 310 306 302 301 299 299 301 301 311 309 306 302 298 297 298 284 267 253 241 241 247 242 253 263 273 273 280 281 286 290 295 285 280 241 195 187 186 185 181 183 182 150 155 166 175 164 187 158 158 175 170 174 175 178 184 177 170 170 169 167 163 158 160 160 154 156
329 321 321 323 324 326 325 326 323 325 328 331 330 327 324 320 315 313 310 309 311 308 306 303 301 305 304 308 309 307 306 304 302 297 294 282 264 246 238 240 236 237 252 256 270 277 281 274 276 280 293 288 284 228 191 186 188 186 185 175 168 156 159 161 168 166 175 177 166 179 173 166 173 187 179 170 170 167 167 160 156 161 164 159 158
334 329 325 323 320 326 325 324 321 323 328 327 328 322 318 316 313 311 311 311 311 312 311 307 306 304 305 306 309 307 304 301 303 298 292 287 272 249 238 238 231 226 236 252 254 267 274 277 274 278 278 290 288 287 231 190 187 185 188 186 176 171 170 177 179 180 170 175 173 167 169 182 173 156 191 181 163 167 161 162 158 161 162 162 155